Zurück zum Katalog

IRIDE-MS2-HEO-3

AktivWissenschaftSSO
NORAD 64568·PAYLOAD·🇮🇹 Italy

Gestartet Jun 23, 2025 von Vandenberg Space Force Base

Loading…

Nächste Überflüge (nächste 24 Stunden)

TLE

AktuellSource: Space-Track

Epoche: Sep 14, 2026, 22:52 UTC

1 64568U 25135AS  26257.95321663  .00001311  00000-0  13504-3 0  9994
2 64568  97.7806  10.9082 0001498  78.7609 281.3778 14.91936965 67267

Verfolge IRIDE-MS2-HEO-3 in Echtzeit mit AllMySat

Download on the App Store